Voltar ao catálogo

CZ-6A DEB

AtivoPO
NORAD 61834·DEBRIS·🇨🇳 China

Lançado Aug 6, 2024 de Taiyuan Satellite Launch Center

Loading…

Próximas Passagens (próximas 24 horas)

TLE

AtualizadoSource: Space-Track

Época: Sep 14, 2026, 11:24 UTC

1 61834U 24140ADA 26257.47511732  .00001415  00000-0  64545-3 0  9993
2 61834  88.9983 265.0419 0055526 268.4599  91.0230 14.20319320103107

Acompanhe CZ-6A DEB em tempo real com AllMySat

Download on the App Store